Flag for U.S.A. Weather past 2 weeks in Ann Arbor, Michigan, U.S.A.

Now
40 °F

Mostly cloudy.


Feels Like: 37 °F
Forecast: 36 / 53 °F
Wind: 5 mph from Southeast

Location: Ann Arbor Municipal Airport

Current Time: Apr 25, 2015 at 7:07:21 AM

Latest Report: Apr 25, 2015 at 5:53 AM


Visibility: 9 mi

Pressure: 29.94 "Hg

Humidity: 89%

Dew point: 37 °F

Location of Ann ArborLocation

Historic Weather in Ann Arbor — Graph

°F

Ann Arbor temperature yesterday

Maximum temperature yesterday: 58 °F (at 4:53 PM)
Minimum temperature yesterday: 22 °F (at 3:53 AM)
Average temperature yesterday: 41 °F

Past Weeks' High & Low Weather Summary

 TemperatureHumidityPressure
High77 °F (Apr 17, 4:53 PM)100% (Apr 11, 7:53 AM)30.39 "Hg (Apr 11, 7:53 AM)
Low22 °F (Apr 24, 3:53 AM)17% (Apr 18, 9:53 PM)29.21 "Hg (Apr 20, 4:53 AM)
Average49 °F61%29.97 "Hg
* Reported Apr 10 5:53 AM — Apr 25 5:53 AM, Ann Arbor, Weather by CustomWeather, © 2015

Note: Actual official high and low records may vary slightly from our data, if they occured in-between our weather recording intervals... More about our weather records

Advertising

Ann Arbor weather history for previous 24 hours

 ConditionsComfort  
Time TempWeatherWind HumidityBarometerVisibility
5:53 AM
Sat, Apr 25
40 °FMostly cloudy.5 mph89%29.94 "Hg9 mi
4:53 AM40 °FMostly cloudy.5 mph89%29.95 "Hg10 mi
3:53 AM41 °FMostly cloudy.No wind86%29.99 "Hg10 mi
2:53 AM41 °FLight rain. Mostly cloudy.5 mph86%30.00 "Hg9 mi
1:53 AM42 °FLight rain. Overcast.5 mph79%30.01 "Hg9 mi
12:53 AM43 °FLight rain. Mostly cloudy.3 mph68%30.02 "Hg10 mi
11:53 PM
Fri, Apr 24
44 °FOvercast.3 mph60%30.01 "Hg10 mi
10:53 PM45 °FPassing clouds.3 mph63%29.99 "Hg10 mi
9:53 PM49 °FClear.9 mph41%29.99 "Hg10 mi
8:53 PM51 °FSunny.5 mph28%29.98 "Hg10 mi
6:53 PM57 °FSunny.5 mph21%29.99 "Hg10 mi
5:53 PM57 °FSunny.8 mph20%30.00 "Hg10 mi
4:53 PM58 °FSunny.9 mph20%30.01 "Hg10 mi
3:53 PM57 °FSunny.8 mph23%30.03 "Hg10 mi
2:53 PM56 °FSunny.14 mph24%30.05 "Hg10 mi
1:53 PM54 °FSunny.8 mph25%30.07 "Hg10 mi
12:53 PM51 °FSunny.10 mph28%30.09 "Hg10 mi
11:53 AM48 °FSunny.6 mph39%30.11 "Hg10 mi
10:53 AM46 °FSunny.5 mph40%30.12 "Hg10 mi
9:53 AM40 °FSunny.No wind49%30.13 "Hg10 mi
8:53 AM38 °FSunny.3 mph58%30.13 "Hg10 mi
7:53 AM33 °FSunny.6 mph70%30.11 "Hg10 mi
Weather by CustomWeather, © 2015

See weather overviewHow to use our weather pages